QPF
0.00 0.00 0.00 0.00 0.00 0.00 0.00 0.00 0.00 0.00 0.00 0.00 0.00 0.00 0.00 0.00 0.00 0.00 0.00 0.00 0.00 0.00 0.00 0.00 0.00 0.00 0.00 0.00 0.00 0.00 0.00 0.00 0.00 0.00 0.00 0.00 0.00 0.00 0.00 0.00 0.00 0.00 0.00 0.00
0.00 0.00 0.00 0.00 0.00 0.00 0.00 0.00 0.00 0.00 0.00 0.00 0.00 0.00 0.00 0.00 0.00 0.00 0.00 0.00 0.00 0.00 0.00 0.00 0.00 0.00 0.00 0.00 0.00 0.00 0.00 0.00 0.00 0.00 0.00 0.00 0.00 0.00 0.00 0.00 0.00 0.00 0.00 0.00
0.00 0.00 0.00 0.00 0.00 0.00 0.00 0.00 0.00 0.00 0.00 0.00 0.00 0.00 0.00 0.00 0.00 0.00 0.00 0.00 0.00 0.00 0.00 0.00 0.00 0.00 0.00 0.00 0.00 0.00 0.00 0.00 0.00 0.00 0.00 0.00 0.00 0.00 0.00 0.00 0.00 0.00 0.00 0.00
0.00 0.00 0.00 0.00 0.00 0.00 0.00 0.00 0.00 0.00 0.00 0.00 0.00 0.00 0.00 0.00 0.00 0.00 0.00 0.00 0.00 0.00 0.00 0.00 0.00 0.00 0.00 0.00 0.00 0.00 0.00 0.00 0.00 0.00 0.00 0.00 0.00 0.00 0.00 0.00 0.00 0.00 0.00 0.00
0.00 0.00 0.00 0.00 0.00 0.00 0.00 0.00 0.00 0.00 0.00 0.00 0.00 0.00 0.00 0.00 0.00 0.00 0.00 0.00 0.00 0.00 0.00 0.00 0.00 0.00 0.00 0.00 0.00 0.00 0.00 0.00 0.00 0.00 0.00 0.00 0.00 0.00 0.00 0.00 0.00 0.00 0.00 0.00
0.00 0.00 0.00 0.00 0.00 0.00 0.00 0.00 0.00 0.00 0.00 0.00 0.00 0.00 0.00 0.00 0.00 0.00 0.00 0.00 0.00 0.00 0.00 0.00 0.00 0.00 0.00 0.00 0.00 0.00 0.00 0.00 0.00 0.00 0.00 0.00 0.00 0.00 0.00 0.00 0.00 0.00 0.00 0.00
0.00 0.00 0.00 0.00 0.00 0.00 0.00 0.00 0.00 0.00 0.00 0.00 0.00 0.00 0.00 0.00 0.00 0.00 0.00 0.00 0.00 0.00 0.00 0.00 0.00 0.00 0.00 0.00 0.00 0.00 0.00 0.00 0.00 0.00 0.00 0.00 0.00 0.00 0.00 0.00 0.00 0.00 0.00 0.00
0.00 0.00 0.00 0.00 0.00 0.00 0.00 0.00 0.00 0.00 0.00 0.00 0.00 0.00 0.00 0.00 0.00 0.00 0.00 0.00 0.00 0.00 0.00 0.00 0.00 0.00 0.00 0.00 0.00 0.00 0.00 0.00 0.00 0.00 0.00 0.00 0.00 0.00 0.00 0.00 0.00 0.00 0.00 0.00
0.00 0.00 0.00 0.00 0.00 0.00 0.00 0.00 0.00 0.00 0.00 0.00 0.00 0.00 0.00 0.00 0.00 0.00 0.00 0.00 0.00 0.00 0.00 0.00 0.00 0.00 0.00 0.00 0.00 0.00 0.00 0.00 0.00 0.00 0.00 0.00 0.00 0.00 0.00 0.00 0.00 0.00 0.00 0.00
0.00 0.00 0.00 0.00 0.00 0.00 0.00 0.00 0.00 0.00 0.00 0.00 0.00 0.00 0.00 0.00 0.00 0.00 0.00 0.00 0.00 0.00 0.00 0.00 0.00 0.00 0.00 0.00 0.00 0.00 0.00 0.00 0.00 0.00 0.00 0.00 0.00 0.00 0.00 0.00 0.00 0.00 0.00 0.00
0.00 0.00 0.00 0.00 0.00 0.00 0.00 0.00 0.00 0.00 0.00 0.00 0.00 0.00 0.00 0.00 0.00 0.00 0.00 0.00 0.00 0.00 0.00 0.00 0.00 0.00 0.00 0.00 0.00 0.00 0.00 0.00 0.00 0.00 0.00 0.00 0.00 0.00 0.00 0.00 0.00 0.00 0.00 0.00
0.00 0.00 0.00 0.00 0.00 0.00 0.00 0.00 0.00 0.00 0.00 0.00 0.00 0.00 0.00 0.00 0.00 0.00 0.00 0.00 0.00 0.00 0.00 0.00 0.00 0.00 0.00 0.00 0.00 0.00 0.00 0.00 0.00 0.00 0.00 0.00 0.00 0.00 0.00 0.00 0.00 0.00 0.00 0.00
0.00 0.00 0.00 0.00 0.00 0.00 0.00 0.00 0.00 0.00 0.00 0.00 0.00 0.00 0.00 0.00 0.00 0.00 0.00 0.00 0.00 0.00 0.00 0.00 0.00 0.00 0.00 0.00 0.00 0.00 0.00 0.00 0.00 0.00 0.00 0.00 0.00 0.00 0.00 0.00 0.00 0.00 0.00 0.00
0.00 0.00 0.00 0.00 0.00 0.00 0.00 0.00 0.00 0.00 0.00 0.00 0.00 0.00 0.00 0.00 0.00 0.00 0.00 0.00 0.00 0.00 0.00 0.00 0.00 0.00 0.00 0.00 0.00 0.00 0.00 0.00 0.00 0.00 0.00 0.00 0.00 0.00 0.00 0.00 0.00 0.00 0.00 0.00
0.00 0.00 0.00 0.00 0.00 0.00 0.00 0.00 0.00 0.00 0.00 0.00 0.00 0.00 0.00 0.00 0.00 0.00 0.00 0.00 0.00 0.00 0.00 0.00 0.00 0.00 0.00 0.00 0.00 0.00 0.00 0.00 0.00 0.00 0.00 0.00 0.00 0.00 0.00 0.00 0.00 0.00 0.00 0.00
0.00 0.00 0.00 0.00 0.00 0.00 0.00 0.00 0.00 0.00 0.00 0.00 0.00 0.00 0.00 0.00 0.00 0.00 0.00 0.00 0.00 0.00 0.00 0.00 0.00 0.00 0.00 0.00 0.00 0.00 0.00 0.00 0.00 0.00 0.00 0.00 0.00 0.00 0.00 0.00 0.00 0.00 0.00 0.00
0.00 0.00 0.00 0.00 0.00 0.00 0.00 0.00 0.00 0.00 0.00 0.00 0.00 0.00 0.00 0.00 0.00 0.00 0.00 0.00 0.00 0.00 0.00 0.00 0.00 0.00 0.00 0.00 0.00 0.00 0.00 0.00 0.00 0.00 0.00 0.00 0.00 0.00 0.00 0.00 0.00 0.00 0.00 0.00
0.00 0.00 0.00 0.00 0.00 0.00 0.00 0.00 0.00 0.00 0.00 0.00 0.00 0.00 0.00 0.00 0.00 0.00 0.00 0.00 0.00 0.00 0.00 0.00 0.00 0.00 0.00 0.00 0.00 0.00 0.00 0.00 0.00 0.00 0.00 0.00 0.00 0.00 0.00 0.00 0.00 0.00 0.00 0.00
0.00 0.00 0.00 0.00 0.00 0.02 0.01 0.00 0.00 0.00 0.00 0.00 0.00 0.00 0.00 0.00 0.00 0.00 0.00 0.00 0.00 0.00 0.00 0.00 0.00 0.00 0.00 0.00 0.00 0.00 0.00 0.00 0.00 0.00 0.00 0.00 0.00 0.00 0.00 0.00 0.00 0.00 0.00 0.00
0.00 0.01 0.01 0.01 0.01 0.03 0.02 0.00 0.00 0.00 0.00 0.00 0.00 0.00 0.00 0.00 0.00 0.00 0.00 0.00 0.00 0.00 0.00 0.00 0.00 0.00 0.00 0.00 0.00 0.00 0.00 0.00 0.00 0.00 0.00 0.00 0.00 0.00 0.00 0.00 0.00 0.00 0.00 0.00
0.01 0.01 0.01 0.01 0.02 0.01 0.02 0.00 0.00 0.00 0.00 0.00 0.00 0.00 0.00 0.00 0.00 0.00 0.00 0.00 0.00 0.00 0.00 0.00 0.00 0.00 0.00 0.00 0.00 0.00 0.00 0.00 0.00 0.00 0.00 0.00 0.00 0.00 0.00 0.00 0.00 0.00 0.00 0.00
0.01 0.01 0.01 0.01 0.02 0.01 0.00 0.01 0.00 0.00 0.00 0.00 0.00 0.00 0.00 0.00 0.00 0.00 0.00 0.00 0.00 0.00 0.00 0.00 0.00 0.00 0.00 0.00 0.00 0.00 0.00 0.00 0.00 0.00 0.00 0.00 0.00 0.00 0.00 0.00 0.00 0.00 0.00 0.00
0.00 0.00 0.00 0.00 0.00 0.00 0.00 0.00 0.00 0.00 0.00 0.00 0.00 0.00 0.00 0.00 0.00 0.01 0.01 0.00 0.00 0.00 0.00 0.00 0.00 0.00 0.00 0.00 0.00 0.00 0.00 0.00 0.00 0.00 0.00 0.00 0.00 0.00 0.00 0.00 0.00 0.00 0.00 0.00
0.00 0.00 0.00 0.00 0.00 0.00 0.00 0.00 0.00 0.00 0.00 0.00 0.00 0.00 0.00 0.00 0.00 0.01 0.02 0.02 0.02 0.00 0.00 0.00 0.00 0.00 0.00 0.00 0.00 0.00 0.00 0.00 0.00 0.00 0.00 0.00 0.00 0.00 0.00 0.00 0.00 0.00 0.00 0.00
0.00 0.00 0.00 0.00 0.00 0.00 0.00 0.00 0.00 0.00 0.00 0.00 0.00 0.00 0.00 0.00 0.00 0.01 0.02 0.02 0.03 0.03 0.02 0.00 0.00 0.00 0.00 0.00 0.00 0.00 0.00 0.00 0.00 0.00 0.00 0.00 0.00 0.00 0.00 0.00 0.00 0.00 0.00 0.00
0.01 0.02 0.01 0.00 0.00 0.01 0.00 0.00 0.00 0.00 0.00 0.00 0.00 0.00 0.00 0.00 0.00 0.00 0.01 0.01 0.01 0.03 0.03 0.01 0.00 0.00 0.00 0.01 0.01 0.00 0.00 0.00 0.00 0.01 0.00 0.00 0.00 0.00 0.00 0.00 0.00 0.00 0.00 0.00
MSLP
1008.71 1008.26 1006.87 1006.70 1007.48 1007.36 1006.99 1006.34 1005.49 1005.01 1004.63 1004.59 1004.18 1004.76 1005.99 1007.23 1008.17 1008.81 1009.49 1010.18 1010.61 1011.05 1011.69 1012.43 1013.07 1013.77 1014.39 1014.96 1015.53 1016.11 1016.64 1017.06 1017.61 1017.96 1018.06 1018.34 1018.50 1018.85 1019.12 1019.19 1019.37 1019.60 1019.84 1020.12
1008.85 1007.15 1006.99 1007.76 1008.05 1007.84 1007.35 1006.62 1005.77 1005.19 1004.85 1004.86 1004.33 1004.01 1005.21 1006.36 1006.71 1007.39 1008.26 1009.09 1009.83 1010.61 1011.11 1011.73 1012.35 1012.98 1013.58 1014.29 1014.93 1015.59 1016.10 1016.71 1017.17 1017.58 1017.85 1017.97 1018.22 1018.57 1018.73 1018.93 1019.21 1019.41 1019.61 1019.89
1007.36 1007.07 1007.31 1007.57 1007.65 1007.57 1007.07 1006.51 1006.30 1005.68 1005.32 1004.83 1004.47 1004.11 1004.78 1005.55 1006.43 1007.22 1007.92 1008.73 1009.53 1009.69 1010.12 1010.78 1011.37 1011.95 1012.76 1013.43 1014.08 1014.85 1015.53 1016.17 1016.72 1017.17 1017.73 1018.03 1018.21 1018.50 1018.78 1018.93 1019.08 1019.15 1019.44 1019.69
1007.42 1006.91 1007.03 1006.81 1006.65 1007.11 1006.61 1006.74 1006.83 1006.49 1006.01 1004.57 1004.31 1003.03 1003.49 1004.22 1005.19 1005.95 1006.71 1007.53 1008.05 1008.81 1009.51 1009.99 1010.58 1011.07 1011.48 1012.39 1013.35 1014.17 1014.97 1015.70 1016.30 1016.84 1017.25 1017.44 1017.46 1017.65 1018.13 1018.57 1018.84 1018.92 1019.29 1019.53
1006.73 1006.39 1006.39 1006.36 1006.27 1006.73 1006.00 1006.68 1006.60 1006.55 1006.23 1005.57 1004.05 1003.24 1002.01 1003.11 1003.69 1004.32 1005.12 1005.78 1006.64 1007.37 1008.17 1008.66 1009.18 1009.83 1010.69 1011.81 1012.50 1013.39 1014.29 1015.07 1015.64 1016.22 1016.57 1017.10 1017.24 1017.44 1017.95 1018.34 1018.79 1019.06 1019.22 1019.43
1007.50 1006.86 1005.96 1005.47 1006.00 1006.35 1006.48 1006.39 1006.40 1006.39 1006.10 1004.58 1003.57 1002.84 1000.81 1001.34 1001.69 1002.60 1003.42 1004.41 1005.24 1005.95 1006.81 1007.47 1008.32 1009.37 1010.02 1010.94 1011.79 1012.55 1013.47 1014.21 1014.97 1015.58 1016.06 1016.53 1016.84 1017.17 1017.66 1018.01 1018.25 1018.61 1018.97 1019.12
1008.13 1006.91 1006.16 1005.79 1005.68 1006.02 1006.36 1005.95 1005.79 1005.90 1005.02 1002.17 1002.75 1002.39 1000.89 1000.39 1000.96 1000.94 1001.57 1002.55 1003.67 1004.64 1005.63 1006.44 1007.21 1008.02 1008.94 1009.71 1010.64 1011.52 1012.58 1013.30 1014.12 1014.84 1015.40 1015.79 1016.37 1016.87 1017.16 1017.56 1017.77 1017.96 1018.39 1018.70
1008.89 1007.57 1007.09 1007.37 1005.90 1005.33 1005.37 1005.19 1003.97 1003.53 1002.78 1002.11 1002.28 999.77 999.26 1000.16 1000.26 1000.57 1000.69 1001.23 1002.53 1003.56 1004.37 1005.09 1005.73 1006.63 1007.57 1008.36 1009.42 1010.37 1011.35 1012.33 1013.11 1013.88 1014.51 1015.16 1015.65 1016.19 1016.53 1016.91 1017.06 1017.51 1017.77 1018.08
1010.57 1009.02 1008.47 1007.82 1007.38 1006.50 1005.03 1004.35 1003.87 1003.45 1003.35 1001.96 1000.22 1000.03 999.54 999.25 999.13 999.20 1000.03 1000.61 1001.07 1001.90 1002.71 1003.42 1004.49 1005.17 1006.04 1007.19 1008.16 1009.13 1010.20 1011.21 1012.16 1012.85 1013.73 1014.37 1014.93 1015.40 1015.75 1016.15 1016.64 1017.04 1017.47 1017.69
1012.56 1010.83 1009.33 1008.59 1007.76 1006.51 1005.63 1004.33 1004.27 1003.83 1002.37 1000.99 999.59 998.79 997.30 997.59 998.04 998.19 998.47 999.23 999.93 1000.59 1001.38 1002.17 1003.01 1003.93 1004.79 1005.65 1006.84 1007.94 1009.08 1009.95 1010.78 1011.93 1012.79 1013.53 1014.01 1014.54 1015.07 1015.66 1015.97 1016.34 1016.88 1017.33
1013.62 1012.70 1010.00 1009.18 1007.65 1006.26 1006.31 1005.22 1004.22 1003.34 1002.34 1000.49 999.62 997.80 997.21 996.95 996.86 997.11 997.63 998.14 998.55 999.18 999.83 1000.40 1001.22 1002.39 1003.43 1004.53 1005.70 1006.62 1007.82 1008.91 1009.89 1010.72 1011.60 1012.46 1013.20 1013.73 1014.41 1014.92 1015.34 1015.72 1016.24 1016.80
1014.27 1013.68 1011.57 1009.68 1008.46 1008.29 1007.87 1006.71 1005.14 1003.66 1002.41 1001.32 999.91 997.83 996.93 996.71 996.38 996.45 996.66 997.09 997.51 997.99 998.47 999.20 1000.11 1001.61 1002.70 1003.41 1004.29 1005.18 1006.37 1007.59 1008.46 1009.43 1010.59 1011.38 1012.25 1012.99 1013.61 1014.04 1014.57 1015.09 1015.53 1016.04
1014.77 1014.35 1012.46 1009.51 1008.81 1009.07 1008.63 1007.73 1007.14 1005.95 1003.72 1001.35 999.96 998.71 997.24 997.19 996.95 996.81 996.94 997.07 997.42 997.63 998.32 999.21 999.85 1000.30 1001.16 1002.17 1003.10 1004.00 1005.04 1006.07 1007.03 1008.24 1009.43 1010.43 1011.19 1012.12 1012.56 1013.04 1013.72 1014.40 1014.86 1015.19
1015.11 1014.80 1013.40 1011.29 1010.26 1010.82 1010.17 1009.32 1008.59 1007.49 1004.41 1002.25 1000.33 999.08 997.78 997.23 996.85 996.83 997.17 997.39 997.60 997.66 997.93 998.49 999.19 999.65 1000.40 1001.29 1002.15 1003.03 1004.00 1005.04 1006.06 1007.09 1008.17 1009.19 1010.04 1010.88 1011.49 1012.08 1012.87 1013.61 1014.09 1014.46
1015.50 1014.90 1014.28 1013.02 1011.95 1011.30 1010.55 1009.69 1008.95 1007.79 1006.14 1003.57 1001.09 999.87 998.35 997.74 997.59 997.16 997.45 997.98 998.04 998.09 997.87 998.01 998.25 998.78 999.58 1000.52 1001.48 1002.38 1003.27 1004.31 1005.11 1006.24 1007.14 1008.00 1009.00 1009.83 1010.60 1011.43 1012.01 1012.71 1013.34 1013.65
1015.97 1015.06 1014.59 1013.17 1011.85 1010.83 1009.49 1008.70 1008.22 1007.52 1005.99 1004.90 1003.09 1000.89 999.87 999.28 998.95 998.66 998.78 998.77 998.50 998.44 998.14 997.80 997.78 998.19 998.67 999.33 1000.00 1000.93 1002.00 1003.05 1004.15 1005.25 1006.03 1007.05 1008.11 1009.06 1009.66 1010.38 1011.17 1011.87 1012.35 1012.89
1015.82 1015.27 1014.36 1012.46 1011.57 1010.76 1008.18 1006.26 1006.19 1006.24 1005.40 1004.65 1002.83 1001.18 1000.83 999.91 999.87 1000.07 1000.12 1000.01 999.53 999.13 998.81 998.23 997.45 997.23 997.40 997.98 998.85 999.74 1000.74 1002.30 1003.38 1004.44 1005.41 1006.26 1007.24 1008.09 1008.77 1009.44 1010.29 1010.80 1011.27 1011.98
1015.21 1015.33 1014.83 1013.00 1012.07 1010.07 1006.21 1004.69 1003.92 1004.84 1005.54 1005.21 1004.24 1002.74 1001.87 1000.48 1000.71 1000.83 1000.92 1000.77 1000.32 999.70 998.82 997.93 997.19 996.39 996.51 996.99 998.11 999.56 1000.47 1001.59 1002.75 1003.76 1004.57 1005.37 1006.24 1007.03 1007.89 1008.71 1009.37 1009.93 1010.57 1011.03
1014.49 1015.01 1014.51 1013.65 1012.36 1009.57 1007.27 1006.07 1004.57 1004.35 1005.56 1005.65 1004.93 1003.58 1002.51 1001.49 1000.87 1000.57 1001.15 1000.86 1000.28 999.73 998.67 997.61 996.64 995.45 995.73 996.45 997.39 998.79 999.90 1000.95 1002.07 1002.85 1003.59 1004.32 1005.25 1006.21 1007.07 1007.82 1008.46 1009.05 1009.73 1010.33
1014.62 1014.80 1014.95 1014.22 1013.17 1010.23 1007.83 1007.40 1007.29 1005.85 1005.49 1005.91 1005.49 1003.98 1002.91 1001.43 1001.09 1001.89 1001.89 1001.40 1000.47 999.73 998.95 997.08 995.31 994.65 995.03 995.62 996.99 998.23 999.40 1000.19 1000.90 1001.64 1002.53 1003.60 1004.59 1005.51 1006.17 1006.84 1007.37 1007.92 1008.56 1009.00
1014.65 1014.93 1014.59 1014.51 1014.06 1011.61 1009.76 1009.03 1007.47 1006.58 1006.34 1006.00 1005.63 1004.68 1003.81 1002.85 1003.11 1003.21 1002.83 1002.07 1001.24 1000.09 998.47 996.61 994.81 994.63 994.95 995.61 996.99 997.93 998.89 999.39 999.99 1001.36 1002.29 1003.11 1003.85 1004.54 1005.09 1005.78 1006.42 1007.01 1007.60 1008.08
1014.15 1014.46 1014.37 1014.64 1014.37 1012.26 1010.97 1009.20 1007.21 1007.17 1006.85 1006.68 1006.09 1005.38 1004.85 1004.51 1004.29 1003.88 1003.65 1002.63 1001.72 1000.57 998.50 997.41 996.71 996.49 996.25 996.55 997.31 998.06 998.69 999.75 1000.42 1001.07 1001.78 1002.51 1003.19 1003.91 1004.54 1005.17 1005.75 1006.38 1006.95 1007.50
1014.26 1014.31 1013.50 1013.35 1012.45 1011.45 1010.78 1010.01 1008.95 1008.23 1007.63 1007.21 1006.68 1006.19 1005.74 1005.22 1004.83 1004.65 1004.16 1003.26 1002.16 1000.97 1000.17 1000.02 999.00 998.34 998.28 998.29 998.36 998.84 999.44 1000.02 1000.24 1000.74 1001.23 1001.85 1002.59 1003.21 1003.63 1004.38 1005.03 1005.70 1006.26 1006.52
1014.11 1013.81 1013.35 1012.77 1012.09 1011.37 1010.57 1009.75 1009.38 1008.62 1008.13 1007.76 1007.31 1006.92 1006.43 1005.98 1005.59 1005.12 1004.72 1003.97 1003.27 1002.33 1001.85 1001.14 1000.04 999.75 999.87 1000.27 1000.12 1000.25 1000.05 1000.08 1000.25 1000.62 1001.07 1001.59 1002.16 1002.67 1003.16 1003.75 1004.23 1004.60 1004.91 1005.41
1014.28 1013.56 1012.90 1012.37 1011.79 1011.11 1010.76 1010.01 1009.60 1009.05 1008.29 1007.89 1007.65 1007.41 1007.08 1006.61 1006.36 1005.99 1005.50 1004.90 1004.57 1004.03 1003.49 1002.76 1002.16 1001.95 1001.72 1001.43 1001.18 1001.55 1000.96 1001.03 1000.69 1000.93 1001.31 1001.94 1002.39 1002.85 1003.06 1003.37 1003.69 1003.92 1003.90 1004.27
1014.66 1014.23 1013.70 1012.97 1012.39 1011.72 1010.45 1010.14 1009.48 1008.83 1008.36 1008.13 1007.89 1007.76 1007.62 1007.26 1006.95 1006.57 1006.09 1005.74 1005.46 1005.03 1004.57 1003.74 1003.36 1003.01 1003.01 1002.97 1002.93 1002.91 1002.95 1002.51 1001.93 1001.78 1001.68 1002.13 1002.24 1002.63 1002.58 1002.96 1003.93 1004.88 1004.71 1004.67
Thickness
5721 5719 5732 5746 5741 5744 5742 5746 5753 5768 5786 5783 5791 5792 5788 5786 5785 5782 5780 5778 5778 5778 5781 5779 5777 5776 5774 5773 5771 5770 5769 5770 5769 5769 5772 5772 5771 5772 5771 5772 5773 5771 5769 5767
5702 5715 5739 5732 5725 5725 5731 5733 5745 5764 5774 5770 5782 5788 5791 5787 5790 5792 5785 5782 5779 5778 5781 5779 5779 5779 5778 5775 5773 5772 5773 5773 5771 5771 5771 5775 5775 5774 5775 5775 5775 5774 5772 5770
5703 5719 5723 5717 5715 5714 5724 5729 5735 5745 5755 5765 5771 5769 5775 5788 5788 5790 5790 5786 5779 5783 5782 5782 5782 5783 5781 5780 5779 5776 5776 5775 5774 5773 5771 5773 5776 5776 5774 5775 5776 5776 5774 5772
5691 5715 5708 5710 5713 5715 5710 5732 5728 5729 5728 5731 5766 5748 5772 5786 5782 5787 5791 5790 5790 5786 5786 5787 5785 5786 5788 5785 5782 5779 5778 5776 5776 5775 5773 5774 5777 5776 5777 5777 5778 5777 5775 5774
5686 5699 5700 5697 5711 5711 5721 5724 5722 5723 5716 5722 5742 5741 5777 5783 5777 5787 5797 5802 5800 5797 5793 5792 5792 5792 5790 5787 5785 5782 5780 5779 5779 5779 5779 5775 5776 5780 5781 5780 5776 5775 5775 5775
5669 5690 5699 5706 5708 5708 5717 5712 5712 5712 5710 5690 5730 5736 5766 5774 5793 5798 5805 5806 5806 5805 5800 5798 5796 5791 5790 5790 5787 5786 5782 5782 5782 5782 5782 5780 5778 5780 5780 5779 5779 5777 5777 5778
5645 5665 5686 5695 5691 5699 5698 5694 5678 5673 5677 5702 5744 5722 5751 5792 5799 5812 5811 5814 5814 5812 5806 5802 5798 5796 5795 5795 5794 5792 5787 5785 5786 5784 5784 5785 5783 5782 5782 5781 5782 5782 5780 5780
5628 5644 5651 5655 5680 5686 5691 5694 5690 5674 5690 5712 5736 5720 5757 5792 5806 5810 5816 5819 5815 5811 5811 5809 5808 5805 5800 5800 5799 5797 5795 5790 5791 5789 5789 5789 5789 5787 5787 5788 5790 5787 5786 5785
5604 5621 5631 5641 5651 5667 5687 5679 5720 5697 5697 5705 5729 5741 5775 5793 5796 5808 5806 5810 5818 5821 5822 5821 5816 5815 5811 5806 5804 5804 5801 5796 5794 5795 5792 5791 5793 5792 5792 5793 5793 5791 5790 5788
5576 5595 5613 5623 5640 5659 5671 5703 5668 5680 5672 5680 5711 5732 5760 5783 5792 5805 5810 5814 5820 5827 5827 5826 5824 5823 5820 5816 5812 5809 5805 5802 5801 5797 5796 5795 5796 5797 5795 5795 5796 5796 5793 5790
5558 5567 5603 5610 5626 5648 5647 5660 5677 5694 5695 5695 5693 5723 5786 5790 5805 5808 5813 5821 5827 5831 5834 5838 5837 5833 5827 5823 5817 5814 5811 5807 5803 5802 5801 5799 5799 5799 5799 5798 5798 5799 5797 5794
5541 5546 5568 5592 5615 5620 5620 5636 5660 5666 5680 5698 5702 5722 5791 5797 5808 5816 5822 5829 5833 5838 5843 5844 5842 5833 5827 5827 5825 5822 5818 5814 5812 5810 5805 5804 5803 5801 5800 5802 5802 5801 5801 5799
5524 5527 5548 5591 5605 5601 5606 5620 5631 5645 5674 5679 5684 5707 5782 5788 5792 5805 5809 5821 5826 5833 5834 5834 5836 5838 5836 5834 5831 5828 5825 5823 5821 5816 5811 5806 5805 5803 5805 5807 5806 5804 5803 5803
5509 5511 5531 5560 5570 5562 5570 5586 5605 5613 5648 5678 5689 5715 5759 5775 5785 5798 5804 5811 5817 5826 5831 5833 5833 5837 5838 5837 5835 5832 5831 5829 5825 5822 5818 5814 5812 5810 5811 5812 5809 5807 5806 5806
5494 5502 5508 5527 5543 5548 5558 5572 5587 5600 5627 5646 5695 5709 5751 5768 5778 5792 5800 5801 5807 5815 5825 5832 5837 5841 5839 5837 5836 5834 5832 5829 5830 5824 5821 5820 5818 5816 5814 5812 5813 5811 5809 5810
5476 5492 5495 5511 5534 5545 5557 5574 5584 5600 5623 5629 5659 5693 5740 5754 5762 5772 5776 5785 5797 5804 5816 5829 5837 5841 5841 5843 5844 5842 5838 5837 5835 5829 5827 5824 5820 5816 5817 5816 5815 5814 5813 5811
5467 5479 5489 5508 5522 5526 5550 5587 5601 5610 5629 5641 5661 5707 5723 5741 5744 5749 5756 5767 5780 5794 5805 5818 5835 5845 5850 5852 5851 5847 5845 5840 5836 5831 5827 5825 5822 5819 5819 5819 5818 5818 5817 5814
5460 5457 5469 5494 5502 5510 5585 5613 5629 5621 5616 5632 5653 5685 5703 5736 5736 5742 5750 5759 5771 5785 5802 5818 5832 5848 5856 5859 5854 5846 5844 5839 5834 5829 5828 5828 5826 5824 5822 5820 5820 5820 5819 5817
5471 5462 5474 5480 5497 5539 5566 5585 5611 5617 5609 5623 5641 5674 5697 5723 5735 5742 5745 5758 5769 5781 5798 5817 5835 5854 5858 5858 5857 5850 5843 5838 5833 5831 5832 5833 5831 5826 5824 5822 5822 5822 5820 5817
5458 5464 5460 5474 5478 5534 5553 5570 5577 5597 5609 5620 5636 5666 5690 5722 5722 5719 5732 5747 5765 5783 5798 5819 5843 5858 5860 5862 5858 5850 5842 5839 5836 5838 5837 5835 5831 5827 5826 5825 5825 5826 5825 5823
5443 5446 5457 5471 5469 5509 5528 5547 5574 5588 5606 5618 5634 5661 5680 5694 5700 5707 5724 5738 5756 5775 5799 5824 5845 5850 5856 5858 5853 5847 5843 5842 5844 5838 5836 5834 5832 5830 5829 5827 5827 5828 5827 5827
5463 5463 5472 5474 5473 5506 5508 5545 5581 5586 5599 5612 5631 5654 5667 5680 5688 5700 5711 5729 5746 5767 5792 5809 5819 5825 5837 5842 5842 5840 5839 5838 5837 5836 5833 5831 5831 5829 5829 5828 5828 5827 5827 5825
5481 5473 5489 5491 5505 5509 5512 5534 5559 5576 5592 5608 5627 5645 5657 5671 5681 5691 5703 5720 5738 5756 5771 5780 5795 5806 5813 5823 5828 5827 5828 5830 5832 5833 5832 5832 5832 5831 5833 5829 5829 5827 5828 5829
5474 5479 5488 5495 5505 5510 5517 5538 5554 5573 5590 5604 5622 5634 5649 5660 5672 5684 5697 5709 5723 5741 5751 5765 5782 5790 5795 5799 5807 5812 5819 5826 5827 5828 5827 5829 5829 5830 5832 5832 5833 5833 5834 5834
5481 5490 5496 5502 5507 5520 5523 5538 5554 5571 5591 5604 5616 5627 5639 5651 5662 5673 5686 5698 5708 5720 5733 5746 5757 5764 5773 5784 5793 5794 5799 5810 5816 5818 5819 5817 5819 5820 5824 5829 5833 5836 5839 5839
5482 5484 5492 5502 5503 5517 5533 5545 5560 5576 5591 5601 5610 5619 5631 5642 5653 5665 5677 5686 5696 5705 5716 5732 5741 5750 5756 5764 5770 5775 5779 5789 5798 5802 5809 5808 5811 5814 5820 5823 5822 5814 5822 5825